[[{"header":{"parameterUnit":"m.s-1","parameterCategory":1,"la1":30.2991,"la2":30.254,"lo1":-89.0895,"lo2":-89.0444,"dy":0.0017,"dx":0.0017,"nx":28,"ny":28,"refTime":"2025-02-25T09:00:00:Z","depth":0,"parameterNumber":2,"parameterNumberName":"U-component_of_WINDS"},"data":[0,0,0,0,0,0,0,0,0,0,0,0,0,0,0,0,0,0,0,0,0,0,0,0,0,0,0,0,0,0,0,0,0,0,0,0,0,0,0,0,0,0,0,0,0,0,0,0,0,0,0,0,0,0,0,0,0,0,-0.2907,-0.2907,0,-0.2868,-0.2868,-0.2867,-0.285,-0.285,-0.285,-0.285,-0.2809,-0.2808,-0.2807,0,0,0,0,0,0,0,0,0,0,0,0,0,-0.2967,-0.2966,-0.2907,-0.2907,-0.2906,-0.2868,-0.2868,-0.2867,-0.285,-0.285,-0.285,-0.285,-0.281,-0.2808,-0.2807,0,0,0,0,0,0,0,0,0,0,0,0,0,-0.2936,-0.2966,-0.2907,-0.2893,-0.2891,-0.2868,-0.2868,-0.2867,-0.285,-0.285,-0.285,-0.285,-0.281,-0.2808,-0.2807,-0.2794,0,0,-0.2801,-0.2801,0,0,0,0,0,0,0,0,-0.2938,-0.2934,-0.2896,-0.2894,-0.2892,-0.2864,-0.2874,-0.2843,-0.285,-0.2866,-0.285,-0.285,-0.2827,-0.2824,-0.2817,-0.2792,-0.2791,-0.2801,-0.28,-0.2799,-0.2799,0,0,0,0,0,0,0,-0.294,-0.2935,-0.2892,-0.2895,-0.2893,-0.2889,-0.2885,-0.2868,-0.2846,-0.2864,-0.2863,-0.2859,-0.2826,-0.2818,-0.2816,-0.279,-0.2801,-0.28,-0.2799,-0.2798,-0.2756,-0.2756,0,0,0,0,0,0,-0.2944,-0.2937,-0.2893,-0.2891,-0.2916,-0.2888,-0.2883,-0.2873,-0.2847,-0.2843,-0.2859,-0.2858,-0.2821,-0.2818,-0.2814,-0.2799,-0.28,-0.2798,-0.2797,-0.2756,-0.2756,-0.2756,0,0,0,0,0,0,-0.2946,-0.2941,-0.2895,-0.2914,-0.2907,-0.2887,-0.2876,-0.2872,-0.2864,-0.2842,-0.2838,-0.2854,-0.2821,-0.2816,-0.28,-0.2797,-0.2797,-0.2796,-0.2756,-0.2756,-0.2756,-0.2768,0,0,0,0,0,0,-0.2948,-0.2941,-0.2936,-0.2914,-0.2906,-0.2881,-0.2876,-0.2871,-0.2861,-0.286,-0.2837,-0.2834,-0.2821,-0.2803,-0.2798,-0.2795,-0.2794,-0.2756,-0.2756,-0.2756,-0.2768,-0.2769,-0.2769,0,0,0,0,0,-0.295,-0.2941,-0.2936,-0.2931,-0.29,-0.2881,-0.2877,-0.2863,-0.2861,-0.2856,-0.2843,-0.2834,-0.2798,-0.2801,-0.2796,-0.2792,-0.2756,-0.2756,-0.2756,-0.2768,-0.2768,-0.2769,0,0,0,0,0,0,-0.2962,-0.2937,-0.2932,-0.2915,-0.29,-0.2878,-0.2871,-0.2864,-0.2848,-0.2848,-0.2831,-0.2826,-0.2811,-0.28,-0.2803,-0.278,-0.2777,-0.2775,-0.2787,-0.2788,-0.2789,-0.2791,-0.2793,0,0,0,0,0,-0.2964,-0.295,-0.2929,-0.2916,-0.2909,-0.2892,-0.2883,-0.2873,-0.2857,-0.2851,-0.2836,-0.282,-0.2806,-0.2796,-0.2781,-0.2767,-0.2762,-0.2762,-0.2762,-0.2763,-0.2762,-0.2754,-0.2754,-0.2755,-0.2755,-0.2755,0,0,-0.2965,-0.295,-0.2942,-0.2919,-0.2906,-0.2893,-0.2886,-0.2872,-0.2863,-0.2848,-0.2832,-0.2821,-0.2803,-0.2787,-0.278,-0.2777,-0.2761,-0.2762,-0.2763,-0.2762,-0.2754,-0.2754,-0.2754,-0.2755,-0.2755,-0.2755,0,0,-0.2962,-0.2948,-0.2937,-0.2925,-0.2907,-0.2895,-0.2893,-0.2872,-0.2864,-0.2847,-0.2837,-0.2825,-0.28,-0.2788,-0.2778,-0.2773,-0.2765,-0.2768,-0.2771,-0.2764,-0.2764,-0.2764,-0.2763,-0.2762,-0.2768,-0.2768,-0.2768,0,-0.2966,-0.2946,-0.2932,-0.2919,-0.291,-0.2897,-0.2886,-0.2875,-0.2852,-0.2846,-0.2844,-0.2814,-0.28,-0.2782,-0.2781,-0.2774,-0.2771,-0.2771,-0.2765,-0.2765,-0.2765,-0.2763,-0.2763,-0.2768,-0.2768,-0.2768,-0.2768,0,-0.2952,-0.2939,-0.2932,-0.2912,-0.2901,-0.2889,-0.2874,-0.2865,-0.2857,-0.2846,-0.2831,-0.2815,-0.2797,-0.2792,-0.2784,-0.2774,-0.2773,-0.2769,-0.2765,-0.2765,-0.2764,-0.2763,-0.2769,-0.2769,-0.2769,-0.2768,0,0,-0.2954,-0.2928,-0.2926,-0.2917,-0.2896,-0.2886,-0.2874,-0.2858,-0.2851,-0.2836,-0.2826,-0.2806,-0.2802,-0.2792,-0.2782,-0.2776,-0.2774,-0.2772,-0.2772,-0.2774,-0.2763,-0.2767,-0.2767,-0.2769,-0.2769,-0.2769,-0.2765,0,-0.2948,-0.2926,-0.2915,-0.2898,-0.2886,-0.2875,-0.2865,-0.2852,-0.2841,-0.283,-0.2819,-0.2805,-0.2801,-0.2794,-0.2788,-0.2776,-0.2772,-0.2776,-0.276,-0.2759,-0.2765,-0.2766,-0.2769,-0.2766,-0.2764,-0.2764,-0.2764,0,-0.2938,-0.2924,-0.2907,-0.289,-0.2884,-0.2875,-0.286,-0.2849,-0.2834,-0.2828,-0.2817,-0.2808,-0.2796,-0.2794,-0.2777,-0.278,-0.2773,-0.2766,-0.2766,-0.2764,-0.2762,-0.2764,-0.2765,-0.2765,-0.2763,-0.2763,-0.2763,0,-0.2942,-0.2919,-0.2906,-0.2899,-0.2878,-0.2873,-0.2864,-0.2849,-0.2841,-0.2828,-0.2822,-0.2808,-0.28,-0.2789,-0.2776,-0.2776,-0.2761,-0.2758,-0.2756,-0.2756,-0.2753,-0.2753,-0.2753,-0.2748,-0.2748,-0.2748,-0.2748,0,-0.2936,-0.2926,-0.2908,-0.29,-0.2889,-0.2876,-0.2865,-0.2855,-0.2843,-0.2833,-0.2823,-0.2814,-0.2798,-0.2787,-0.2778,-0.2766,-0.2762,-0.2757,-0.2754,-0.2758,-0.2758,-0.2753,-0.2753,-0.2748,-0.2748,-0.2748,-0.2748,0,-0.2938,-0.2926,-0.2911,-0.2893,-0.2889,-0.2881,-0.2866,-0.2859,-0.2849,-0.2837,-0.2833,-0.2817,-0.2805,-0.2792,-0.2774,-0.2767,-0.2756,-0.2752,-0.2761,-0.276,-0.2759,-0.2759,-0.2755,-0.2754,-0.275,-0.275,-0.275,0,-0.2935,-0.2928,-0.291,-0.2903,-0.2894,-0.2883,-0.2875,-0.2862,-0.2854,-0.2838,-0.2832,-0.2819,-0.2807,-0.2788,-0.2775,-0.2762,-0.2758,-0.2757,-0.2756,-0.276,-0.2759,-0.2759,-0.2759,-0.2758,-0.2758,-0.2758,-0.2758,0,-0.2932,-0.2927,-0.2915,-0.2903,-0.2893,-0.2882,-0.2871,-0.2866,-0.2851,-0.2843,-0.283,-0.2821,-0.2804,-0.2791,-0.2777,-0.2768,-0.2761,-0.2759,-0.2758,-0.2761,-0.2767,-0.2765,-0.2763,-0.2759,-0.2759,-0.2759,-0.2759,-0.2759,-0.2932,-0.2925,-0.2912,-0.29,-0.2891,-0.2881,-0.2873,-0.2863,-0.2852,-0.2838,-0.2831,-0.2819,-0.2806,-0.2786,-0.2777,-0.2768,-0.2765,-0.2763,-0.2763,-0.2763,-0.2764,-0.2769,-0.2765,-0.2765,-0.2765,-0.2765,-0.2765,0,-0.2929,-0.292,-0.2909,-0.2895,-0.2886,-0.2881,-0.2868,-0.2861,-0.285,-0.2839,-0.2829,-0.2815,-0.2803,-0.279,-0.2777,-0.2772,-0.2769,-0.2769,-0.277,-0.2768,-0.2766,-0.2769,-0.2773,-0.2773,-0.2773,-0.2773,-0.2773,-0.2773,-0.2926,-0.2914,-0.2908,-0.2892,-0.2884,-0.2872,-0.2866,-0.2857,-0.2848,-0.2833,-0.2823,-0.2815,-0.2804,-0.2791,-0.278,-0.2776,-0.2772,-0.2774,-0.277,-0.2768,-0.2768,-0.2767,-0.277,-0.2773,-0.2773,-0.2772,-0.2772,-0.2772]},{"header":{"parameterUnit":"m.s-1","parameterCategory":1,"la1":30.2991,"la2":30.254,"lo1":-89.0895,"lo2":-89.0444,"dy":0.0017,"dx":0.0017,"nx":28,"ny":28,"refTime":"2025-02-25T09:00:00:Z","depth":0,"parameterNumber":3,"parameterNumberName":"V-component_of_WINDS"},"data":[0,0,0,0,0,0,0,0,0,0,0,0,0,0,0,0,0,0,0,0,0,0,0,0,0,0,0,0,0,0,0,0,0,0,0,0,0,0,0,0,0,0,0,0,0,0,0,0,0,0,0,0,0,0,0,0,0,0,1.7547,1.7547,0,1.7566,1.7566,1.7566,1.7602,1.7603,1.7603,1.7604,1.7621,1.7621,1.7621,0,0,0,0,0,0,0,0,0,0,0,0,0,1.7539,1.7539,1.7547,1.7547,1.7547,1.7566,1.7566,1.7566,1.7602,1.7603,1.7604,1.7604,1.7621,1.7621,1.7621,0,0,0,0,0,0,0,0,0,0,0,0,0,1.7548,1.7539,1.7547,1.7567,1.7569,1.7566,1.7566,1.7566,1.7602,1.7603,1.7604,1.7605,1.7621,1.7621,1.7621,1.7598,0,0,1.762,1.762,0,0,0,0,0,0,0,0,1.7548,1.7549,1.7564,1.7566,1.7568,1.7583,1.757,1.7577,1.7601,1.7589,1.7604,1.7605,1.7607,1.7608,1.761,1.7599,1.76,1.762,1.762,1.762,1.762,0,0,0,0,0,0,0,1.7547,1.7548,1.7554,1.7564,1.7567,1.7575,1.7577,1.7571,1.7592,1.759,1.7593,1.7595,1.7609,1.761,1.761,1.76,1.762,1.762,1.7619,1.7619,1.7572,1.7571,0,0,0,0,0,0,1.7544,1.7547,1.7554,1.7555,1.756,1.7574,1.7577,1.7577,1.7592,1.7596,1.7594,1.7597,1.761,1.7611,1.7611,1.7586,1.762,1.7619,1.7619,1.7573,1.7571,1.757,0,0,0,0,0,0,1.7544,1.7544,1.7553,1.7552,1.7554,1.7573,1.7573,1.7577,1.7578,1.7595,1.7599,1.7591,1.7611,1.7611,1.7601,1.7587,1.7619,1.7619,1.7574,1.7572,1.7571,1.7534,0,0,0,0,0,0,1.7543,1.7544,1.7536,1.7551,1.7554,1.7543,1.7572,1.7576,1.7578,1.7581,1.7594,1.7597,1.7611,1.7602,1.7601,1.7587,1.7619,1.7575,1.7573,1.7571,1.7537,1.7532,1.7527,0,0,0,0,0,1.7543,1.7524,1.7535,1.7536,1.7544,1.7542,1.7544,1.7562,1.7576,1.7568,1.7579,1.7596,1.7588,1.76,1.76,1.7585,1.7576,1.7574,1.7572,1.7539,1.7533,1.7527,0,0,0,0,0,0,1.7505,1.7526,1.7539,1.7525,1.7532,1.7548,1.7539,1.7554,1.7556,1.7559,1.7581,1.7583,1.757,1.7577,1.759,1.7564,1.7585,1.7582,1.7561,1.7555,1.755,1.7548,1.7618,0,0,0,0,0,1.7495,1.7493,1.7512,1.7497,1.75,1.7519,1.7519,1.7532,1.754,1.7542,1.7553,1.7559,1.7558,1.7557,1.7557,1.7538,1.7541,1.7528,1.7523,1.7519,1.7516,1.7507,1.7502,1.7562,1.7562,1.7562,0,0,1.7475,1.7486,1.7483,1.749,1.7497,1.7493,1.7521,1.7516,1.7513,1.7541,1.7533,1.7541,1.7549,1.7534,1.7529,1.7539,1.75,1.7516,1.7512,1.7512,1.7504,1.7498,1.7493,1.7561,1.7561,1.7561,0,0,1.7436,1.7444,1.7434,1.744,1.745,1.7463,1.746,1.7475,1.7481,1.7473,1.7495,1.7491,1.7489,1.7494,1.7496,1.746,1.7475,1.7459,1.7433,1.7424,1.7419,1.7415,1.7402,1.7397,1.7456,1.7456,1.7456,0,1.7409,1.7405,1.7426,1.742,1.7422,1.7448,1.7437,1.7442,1.7452,1.7452,1.7465,1.7463,1.747,1.7457,1.7448,1.7449,1.7447,1.7457,1.7418,1.7414,1.7411,1.7399,1.7394,1.7454,1.7454,1.7455,1.7455,0,1.7371,1.7368,1.7358,1.7368,1.7369,1.736,1.7379,1.7378,1.7391,1.7402,1.7394,1.7403,1.7406,1.7404,1.7416,1.7393,1.7399,1.7415,1.7436,1.7403,1.7391,1.7387,1.7451,1.7452,1.7452,1.7453,0,0,1.7309,1.733,1.7326,1.7331,1.7345,1.7342,1.7335,1.7338,1.7337,1.7342,1.7336,1.7334,1.7348,1.7351,1.7364,1.7356,1.7326,1.7372,1.7373,1.7363,1.7301,1.7289,1.7284,1.7337,1.7336,1.7336,1.73,0,1.7273,1.7262,1.7281,1.7265,1.7263,1.7288,1.7281,1.7288,1.7298,1.7297,1.7308,1.7306,1.7326,1.7327,1.732,1.7331,1.7314,1.7334,1.7331,1.7331,1.7328,1.7278,1.7266,1.7232,1.7296,1.7295,1.7295,0,1.7229,1.7234,1.7218,1.7233,1.7233,1.7226,1.7231,1.723,1.7238,1.7246,1.7249,1.7266,1.7259,1.728,1.727,1.7283,1.7283,1.7288,1.7288,1.7288,1.7311,1.7277,1.7221,1.7216,1.7288,1.7289,1.7289,0,1.7185,1.7187,1.7178,1.7182,1.7199,1.7194,1.72,1.721,1.7211,1.7215,1.7216,1.7218,1.7219,1.7221,1.7237,1.7251,1.7226,1.7248,1.7232,1.7231,1.7225,1.7225,1.7169,1.7225,1.7225,1.7225,1.7225,0,1.7143,1.7132,1.7159,1.7153,1.7142,1.7164,1.7152,1.7161,1.7169,1.7166,1.7187,1.7183,1.7205,1.7203,1.7216,1.7206,1.7206,1.7212,1.7216,1.721,1.7209,1.721,1.7213,1.7224,1.7224,1.7224,1.7225,0,1.7092,1.7109,1.7101,1.7118,1.7122,1.7113,1.7128,1.7123,1.7135,1.713,1.713,1.7148,1.7147,1.7164,1.7165,1.7174,1.7158,1.7166,1.7156,1.7158,1.7141,1.7142,1.7083,1.7076,1.7137,1.7136,1.7136,0,1.7063,1.7056,1.7073,1.7072,1.7078,1.7077,1.7078,1.7099,1.7099,1.7109,1.7103,1.7104,1.7105,1.7102,1.7115,1.7117,1.7125,1.7104,1.7125,1.712,1.7124,1.7124,1.7124,1.7099,1.7098,1.7098,1.7097,0,1.7012,1.7021,1.7022,1.7027,1.7028,1.7032,1.7038,1.7036,1.7058,1.7058,1.7057,1.7059,1.7061,1.7062,1.7066,1.7072,1.7088,1.7091,1.7087,1.7081,1.7076,1.7079,1.7143,1.7092,1.7092,1.7093,1.7093,1.7093,1.6971,1.6966,1.6977,1.6978,1.6985,1.6989,1.6986,1.6998,1.6998,1.7002,1.7014,1.7012,1.7021,1.7028,1.7033,1.7031,1.7041,1.7035,1.7034,1.7032,1.7029,1.7076,1.7031,1.7032,1.7032,1.7032,1.7032,0,1.692,1.6929,1.693,1.6937,1.6938,1.6954,1.6961,1.6961,1.6959,1.6966,1.6967,1.6967,1.6968,1.6981,1.6983,1.6979,1.6986,1.6978,1.6979,1.698,1.702,1.7023,1.6972,1.6972,1.6972,1.6972,1.6972,1.6972,1.6894,1.6886,1.6897,1.6892,1.6901,1.6899,1.6902,1.6906,1.6912,1.6911,1.6912,1.6921,1.6931,1.6934,1.6935,1.6939,1.6938,1.6928,1.6934,1.6971,1.6977,1.6983,1.6986,1.6928,1.6928,1.6894,1.6894,1.6894]}]]